Location: Unspecified
(35.6961°N, 0.0000°E)
Time: 11:01:43
(UTC+00:00)

Vanguard 3 - Pass Details

Date: 04 June 2019
Orbit: 508 x 3263 km, 33.3° (Epoch: 19 June)

Event Time Altitude Azimuth Distance (km) Brightness Sun altitude
Rises 23:16:47 0° 270° (W) 3,594 10.6 -31.0°
Reaches altitude 10° 23:19:23 10° 257° (WSW) 2,944 10.0 -31.1°
Enters shadow 23:20:14 14° 251° (WSW) 2,781 9.8 -31.1°
Maximum altitude 23:25:23 26° 202° (SSW) 2,585 - -31.3°
Drops below altitude 10° 23:34:34 10° 153° (SSE) 4,632 - -31.5°
Sets 23:40:01 0° 143° (SE) 6,138 - -31.7°
